Cloud_Cover
10 62 36 4 0 0 0 0 0 0 0 0 0 0 0 3 97 34 5 5 0 3 8 1 48 10 5 5 4 4 5 12 5 5 43 37 50 81 34 27 15 81 39
100 98 78 31 0 0 0 4 0 0 0 0 4 0 1 5 6 5 13 6 5 4 0 6 68 8 6 5 5 5 5 6 32 5 6 58 86 100 100 77 98 100 100
18 100 100 85 34 0 0 0 0 0 0 0 5 6 4 0 4 7 28 13 2 0 0 1 7 11 3 5 5 5 5 35 55 35 13 51 90 100 97 29 97 99 97
5 94 100 55 6 9 2 0 0 0 0 0 0 0 1 0 0 0 0 0 0 4 5 3 5 52 100 49 70 13 5 13 30 58 51 35 16 99 100 32 44 79 42
17 89 100 100 100 5 0 0 0 0 0 0 0 0 0 0 2 4 16 86 6 9 98 73 100 100 63 67 90 84 87 73 93 100 70 100 100 100 100 90 70 63 90
82 10 6 100 99 98 6 0 0 0 0 0 0 0 0 0 10 4 5 13 5 5 16 100 100 47 100 52 41 100 100 100 100 100 100 100 100 100 100 100 100 91 62
87 84 86 84 99 98 100 100 1 0 0 0 0 0 0 6 7 0 21 77 100 18 12 52 98 90 100 100 100 100 100 100 100 100 100 100 100 100 100 100 97 100 100
100 73 100 100 78 56 100 100 78 5 0 0 0 0 18 56 60 50 100 100 100 79 92 87 97 100 100 100 100 100 100 100 100 100 33 99 100 100 100 100 100 100 100
97 94 38 98 100 100 100 100 94 96 86 98 64 89 92 83 73 58 99 99 100 95 100 100 100 100 100 100 100 100 100 100 100 100 100 100 100 100 100 100 100 100 100
100 100 55 99 100 100 78 100 100 100 100 100 100 100 100 100 100 100 100 100 100 100 100 100 100 100 100 100 100 100 100 100 100 100 100 100 100 100 100 100 100 100 100
100 100 100 77 100 100 100 100 100 100 100 100 100 100 100 100 100 100 100 100 100 100 100 100 100 100 100 100 100 100 100 100 100 100 100 100 100 100 100 100 100 100 100
100 100 100 100 100 100 100 100 100 100 100 100 100 100 100 100 100 100 100 100 100 100 100 100 100 100 100 100 100 100 100 100 99 100 100 100 100 100 100 100 100 100 100
100 100 100 100 100 100 100 100 100 100 100 100 100 100 100 100 100 100 100 100 100 100 100 100 100 100 100 100 100 100 100 100 100 100 100 100 100 100 100 100 100 100 94
81 100 100 100 100 100 100 100 100 100 100 100 100 100 100 100 100 100 100 100 100 100 100 100 100 100 100 100 100 100 100 100 100 100 99 100 100 100 98 100 100 100 100
80 100 100 100 100 100 100 100 100 100 100 100 100 100 100 100 100 100 100 100 100 100 100 100 100 100 100 100 100 100 100 100 100 99 100 100 100 100 100 98 98 76 92
100 100 100 100 100 100 100 100 100 100 100 100 100 100 100 100 100 100 100 100 100 100 100 100 100 100 100 100 100 100 100 100 100 100 100 97 100 100 100 100 100 85 99
100 100 97 100 100 100 100 100 100 100 100 100 100 100 100 100 100 100 100 100 100 100 100 100 100 100 100 100 100 100 100 100 100 100 100 100 100 100 100 100 100 96 84
100 100 100 100 100 100 100 100 100 100 100 100 100 100 100 100 100 100 100 100 100 100 100 100 100 100 100 100 100 100 100 100 100 100 99 97 100 100 100 36 30 66 92
100 100 100 100 100 100 100 100 100 100 100 100 100 100 100 100 100 100 100 100 100 100 100 100 100 100 100 100 100 100 100 100 100 100 87 98 97 41 45 49 6 2 1
100 100 99 100 98 100 100 100 100 100 100 100 100 100 100 100 100 100 100 100 100 100 100 100 100 100 100 100 100 100 100 100 99 100 97 63 13 19 13 6 36 25 2
100 100 100 100 100 100 100 100 100 100 100 100 100 100 100 100 100 100 100 100 100 100 100 100 100 100 100 100 100 100 100 100 100 100 100 99 100 98 16 11 0 5 5
100 100 100 100 100 100 100 100 100 98 100 100 100 100 100 100 100 100 100 100 100 100 100 100 100 100 100 100 100 84 52 100 100 99 92 43 3 5 1 1 5 6 25
100 100 100 100 100 100 100 100 100 100 100 100 100 100 100 100 100 100 100 100 100 100 100 100 100 100 100 100 100 97 60 79 6 5 19 2 0 0 1 4 24 87 100
63 100 100 100 100 100 100 100 100 100 100 100 72 61 71 94 100 100 100 80 75 80 85 95 77 44 98 60 21 16 28 13 45 8 4 0 0 0 5 5 56 100 98
13 28 37 90 100 100 100 100 100 100 100 100 100 100 97 63 59 82 92 100 87 43 66 91 50 32 97 77 29 50 97 87 17 2 0 0 4 5 9 31 91 86 80
4 7 68 100 89 92 100 100 72 94 100 100 100 100 100 100 94 60 54 74 71 68 82 94 100 95 79 78 67 100 77 43 30 0 0 4 5 6 40 82 92 92 8